H1 CPF 2 NER 2023 9 21 9 264 01 glonass143 H2 2007501 9143 46805 2023 9 21 0 0 0 2023 9 24 23 45 0 900 1 1 0 0 0 1 H9 10 0 60208 0.00000 0 -9153744.049 -19240736.805 14051120.505 10 0 60208 900.00000 0 -7889857.045 -17845567.308 16454004.651 10 0 60208 1800.00000 0 -6317878.568 -16367108.739 18537869.734 10 0 60208 2700.00000 0 -4454681.161 -14867110.466 20262334.621 10 0 60208 3600.00000 0 -2329468.431 -13404604.248 21593975.065 10 0 60208 4500.00000 0 17180.492 -12033456.853 22506966.115 10 0 60208 5400.00000 0 2534742.913 -10800158.070 22983579.337 10 0 60208 6300.00000 0 5164602.889 -9741935.745 23014525.757 10 0 60208 7200.00000 0 7842244.614 -8885275.890 22599138.156 10 0 60208 8100.00000 0 10499699.446 -8244909.096 21745389.145 10 0 60208 9000.00000 0 13068146.551 -7823305.239 20469744.277 10 0 60208 9900.00000 0 15480560.503 -7610697.439 18796852.313 10 0 60208 10800.00000 0 17674296.962 -7585634.315 16759077.717 10 0 60208 11700.00000 0 19593509.638 -7716037.549 14395883.323 10 0 60208 12600.00000 0 21191298.307 -7960720.599 11753074.044 10 0 60208 13500.00000 0 22431498.357 -8271304.883 8881915.326 10 0 60208 14400.00000 0 23290036.972 -8594452.783 5838142.631 10 0 60208 15300.00000 0 23755798.801 -8874323.107 2680880.792 10 0 60208 16200.00000 0 23830964.465 -9055144.855 -528505.899 10 0 60208 17100.00000 0 23530807.322 -9083799.721 -3727610.273 10 0 60208 18000.00000 0 22882956.812 -8912303.039 -6854201.668 10 0 60208 18900.00000 0 21926159.374 -8500076.898 -9847443.625 10 0 60208 19800.00000 0 20708589.280 -7815917.814 -12649085.313 10 0 60208 20700.00000 0 19285780.950 -6839574.187 -15204602.537 10 0 60208 21600.00000 0 17718270.355 -5562865.380 -17464265.338 10 0 60208 22500.00000 0 16069045.411 -3990293.698 -19384110.768 10 0 60208 23400.00000 0 14400913.235 -2139122.134 -20926801.518 10 0 60208 24300.00000 0 12773895.430 -38913.438 -22062353.530 10 0 60208 25200.00000 0 11242761.049 2269451.217 -22768718.553 10 0 60208 26100.00000 0 9854800.865 4735233.667 -23032210.542 10 0 60208 27000.00000 0 8647935.993 7299719.842 -22847768.025 10 0 60208 27900.00000 0 7649239.592 9898442.539 -22219047.746 10 0 60208 28800.00000 0 6873932.788 12463653.547 -21158348.192 10 0 60208 29700.00000 0 6324895.804 14926942.469 -19686364.857 10 0 60208 30600.00000 0 5992713.542 17221893.508 -17831782.282 10 0 60208 31500.00000 0 5856252.343 19286669.825 -15630711.048 10 0 60208 32400.00000 0 5883742.280 21066418.208 -13125980.837 10 0 60208 33300.00000 0 6034318.095 22515394.291 -10366303.464 10 0 60208 34200.00000 0 6259952.636 23598720.210 -7405322.356 10 0 60208 35100.00000 0 6507700.149 24293702.067 -4300567.179 10 0 60208 36000.00000 0 6722153.838 24590652.994 -1112334.159 10 0 60208 36900.00000 0 6848013.179 24493188.369 2097485.823 10 0 60208 37800.00000 0 6832651.978 24017981.891 5266608.359 10 0 60208 38700.00000 0 6628578.309 23193993.762 8333562.380 10 0 60208 39600.00000 0 6195682.166 22061204.301 11238879.249 10 0 60208 40500.00000 0 5503175.796 20668906.836 13926241.143 10 0 60208 41400.00000 0 4531144.655 19073631.944 16343566.806 10 0 60208 42300.00000 0 3271643.400 17336790.217 18444014.116 10 0 60208 43200.00000 0 1729290.322 15522132.107 20186880.748 10 0 60208 44100.00000 0 -78665.474 13693130.684 21538386.318 10 0 60208 45000.00000 0 -2122807.955 11910396.018 22472321.634 10 0 60208 45900.00000 0 -4362531.042 10229228.279 22970553.255 10 0 60208 46800.00000 0 -6747489.256 8697410.700 23023374.152 10 0 60208 47700.00000 0 -9219463.370 7353333.552 22629693.946 10 0 60208 48600.00000 0 -11714565.144 6224526.509 21797065.030 10 0 60208 49500.00000 0 -14165691.156 5326659.941 20541543.684 10 0 60208 50400.00000 0 -16505125.158 4663056.336 18887388.191 10 0 60208 51300.00000 0 -18667181.925 4224731.993 16866598.859 10 0 60208 52200.00000 0 -20590783.448 3990967.058 14518307.776 10 0 60208 53100.00000 0 -22221860.566 3930380.006 11888029.031 10 0 60208 54000.00000 0 -23515479.929 4002461.405 9026782.954 10 0 60208 54900.00000 0 -24437607.208 4159502.347 5990110.537 10 0 60208 55800.00000 0 -24966432.233 4348836.053 2836996.755 10 0 60208 56700.00000 0 -25093199.923 4515297.536 -371276.436 10 0 60208 57600.00000 0 -24822511.487 4603796.719 -3572324.943 10 0 60208 58500.00000 0 -24172082.700 4561895.133 -6703881.354 10 0 60208 59400.00000 0 -23171969.028 4342275.991 -9705013.295 10 0 60208 60300.00000 0 -21863290.067 3905001.692 -12517316.715 10 0 60208 61200.00000 0 -20296507.066 3219461.754 -15086059.892 10 0 60208 62100.00000 0 -18529326.267 2265927.319 -17361255.138 10 0 60208 63000.00000 0 -16624316.648 1036645.110 -19298636.667 10 0 60208 63900.00000 0 -14646342.640 -463576.702 -20860525.203 10 0 60208 64800.00000 0 -12659920.010 -2217316.579 -22016562.342 10 0 60208 65700.00000 0 -10726606.036 -4195024.960 -22744300.480 10 0 60208 66600.00000 0 -8902533.426 -6356027.374 -23029637.075 10 0 60208 67500.00000 0 -7236190.994 -8650004.062 -22867085.181 10 0 60208 68400.00000 0 -5766543.405 -11018884.826 -22259875.420 10 0 60208 69300.00000 0 -4521567.869 -13399080.357 -21219887.829 10 0 60208 70200.00000 0 -3517267.863 -15723957.281 -19767415.279 10 0 60208 71100.00000 0 -2757203.823 -17926453.928 -17930763.351 10 0 60208 72000.00000 0 -2232558.958 -19941727.928 -15745694.682 10 0 60208 72900.00000 0 -1922735.792 -21709725.408 -13254728.790 10 0 60208 73800.00000 0 -1796456.754 -23177564.849 -10506311.109 10 0 60208 74700.00000 0 -1813320.960 -24301636.343 -7553867.626 10 0 60208 75600.00000 0 -1925750.195 -25049329.008 -4454763.684 10 0 60208 76500.00000 0 -2081240.793 -25400314.845 -1269187.435 10 0 60208 77400.00000 0 -2224825.343 -25347335.973 1941020.049 10 0 60208 78300.00000 0 -2301639.479 -24896463.064 5113565.047 10 0 60208 79200.00000 0 -2259484.747 -24066814.911 8186908.359 10 0 60208 80100.00000 0 -2051278.904 -22889751.631 11101455.848 10 0 60208 81000.00000 0 -1637289.979 -21407575.980 13800709.370 10 0 60208 81900.00000 0 -987059.627 -19671797.550 16232356.124 10 0 60208 82800.00000 0 -80934.564 -17741032.716 18349275.766 10 0 60208 83700.00000 0 1088858.725 -15678628.020 20110446.498 10 0 60208 84600.00000 0 2517641.669 -13550105.833 21481733.373 10 0 60208 85500.00000 0 4188238.495 -11420538.257 22436544.363 10 0 60209 0.00000 0 6071461.094 -9351957.980 22956342.213 10 0 60209 900.00000 0 8127106.026 -7400911.867 23031002.936 10 0 60209 1800.00000 0 10305421.033 -5616260.813 22659013.722 10 0 60209 2700.00000 0 12548984.962 -4037312.768 21847507.315 10 0 60209 3600.00000 0 14794922.011 -2692368.524 20612131.073 10 0 60209 4500.00000 0 16977360.581 -1597739.059 18976752.896 10 0 60209 5400.00000 0 19030035.483 -757275.022 16973008.765 10 0 60209 6300.00000 0 20888926.044 -162427.646 14639699.537 10 0 60209 7200.00000 0 22494820.605 207161.706 12022047.636 10 0 60209 8100.00000 0 23795700.507 382568.307 9170827.029 10 0 60209 9000.00000 0 24748843.622 404033.266 6141382.558 10 0 60209 9900.00000 0 25322558.796 319020.769 2992557.227 10 0 60209 10800.00000 0 25497477.709 179965.761 -214451.880 10 0 60209 11700.00000 0 25267349.065 41807.847 -3417286.619 10 0 60209 12600.00000 0 24639300.875 -40583.392 -6553645.958 10 0 60209 13500.00000 0 23633559.111 -14981.649 -9562504.876 10 0 60209 14400.00000 0 22282634.018 165734.512 -12385309.378 10 0 60209 15300.00000 0 20630008.051 541337.249 -14967123.435 10 0 60209 16200.00000 0 18728380.522 1142318.615 -17257704.685 10 0 60209 17100.00000 0 16637542.863 1988356.302 -19212487.369 10 0 60209 18000.00000 0 14421973.923 3087242.041 -20793452.879 10 0 60209 18900.00000 0 12148256.467 4434319.039 -21969870.841 10 0 60209 19800.00000 0 9882423.232 6012453.173 -22718896.404 10 0 60209 20700.00000 0 7687343.721 7792540.036 -23026012.296 10 0 60209 21600.00000 0 5620260.786 9734527.278 -22885307.495 10 0 60209 22500.00000 0 3730579.453 11788909.993 -22299587.472 10 0 60209 23400.00000 0 2057999.638 13898636.981 -21280314.313 10 0 60209 24300.00000 0 631069.654 16001348.465 -19847378.268 10 0 60209 25200.00000 0 -533780.357 18031852.002 -18028705.425 10 0 60209 26100.00000 0 -1432686.190 19924733.213 -15859709.445 10 0 60209 27000.00000 0 -2074261.507 21616992.373 -13382598.132 10 0 60209 27900.00000 0 -2478979.410 23050596.773 -10645548.527 10 0 60209 28800.00000 0 -2678051.400 24174842.198 -7701766.729 10 0 60209 29700.00000 0 -2711852.532 24948424.956 -4608450.948 10 0 60209 30600.00000 0 -2627960.649 25341137.978 -1425678.164 10 0 60209 31500.00000 0 -2478893.630 25335120.313 1784763.673 10 0 60209 32400.00000 0 -2319641.210 24925608.157 4960574.952 10 0 60209 33300.00000 0 -2205096.372 24121156.418 8040151.787 10 0 60209 34200.00000 0 -2187495.305 22943322.079 10963777.915 10 0 60209 35100.00000 0 -2313974.336 21425823.036 13674778.116 10 0 60209 36000.00000 0 -2624347.106 19613207.919 16120611.092 10 0 60209 36900.00000 0 -3149195.803 17559092.617 18253881.100 10 0 60209 37800.00000 0 -3908356.982 15324037.017 20033249.422 10 0 60209 38700.00000 0 -4909865.942 12973150.113 21424228.818 10 0 60209 39600.00000 0 -6149404.463 10573522.611 22399846.374 10 0 60209 40500.00000 0 -7610275.856 8191593.012 22941162.656 10 0 60209 41400.00000 0 -9263909.423 5890555.659 23037637.721 10 0 60209 42300.00000 0 -11070874.550 3727917.385 22687337.181 10 0 60209 43200.00000 0 -12982363.584 1753303.178 21896974.349 10 0 60209 44100.00000 0 -14942083.216 6601.028 20681787.331 10 0 60209 45000.00000 0 -16888476.968 -1483477.728 19065252.747 10 0 60209 45900.00000 0 -18757187.441 -2700363.379 17078640.781 10 0 60209 46800.00000 0 -20483656.626 -3640078.417 14760419.059 10 0 60209 47700.00000 0 -22005756.348 -4311155.324 12155515.855 10 0 60209 48600.00000 0 -23266339.117 -4734025.306 9314455.891 10 0 60209 49500.00000 0 -24215602.463 -4939903.942 6292384.680 10 0 60209 50400.00000 0 -24813167.085 -4969220.918 3147999.867 10 0 60209 51300.00000 0 -25029780.792 -4869660.457 -57589.834 10 0 60209 52200.00000 0 -24848575.632 -4693895.761 -3262055.752 10 0 60209 53100.00000 0 -24265824.258 -4497113.981 -6403066.729 10 0 60209 54000.00000 0 -23291162.694 -4334437.422 -9419508.498 10 0 60209 54900.00000 0 -21947269.252 -4258351.232 -12252680.384 10 0 60209 55800.00000 0 -20269012.433 -4316247.751 -14847445.085 10 0 60209 56700.00000 0 -18302103.223 -4548192.668 -17153308.326 10 0 60209 57600.00000 0 -16101308.161 -4985008.781 -19125406.735 10 0 60209 58500.00000 0 -13728298.170 -5646759.472 -20725384.258 10 0 60209 59400.00000 0 -11249223.345 -6541696.970 -21922139.895 10 0 60209 60300.00000 0 -8732115.273 -7665720.682 -22692432.272 10 0 60209 61200.00000 0 -6244225.529 -9002369.116 -23021329.520 10 0 60209 62100.00000 0 -3849411.296 -10523346.391 -22902496.084 10 0 60209 63000.00000 0 -1605676.830 -12189561.686 -22338311.311 10 0 60209 63900.00000 0 437027.294 -13952638.392 -21339817.923 10 0 60209 64800.00000 0 2238656.330 -15756829.948 -19926501.769 10 0 60209 65700.00000 0 3770498.815 -17541262.281 -18125907.403 10 0 60209 66600.00000 0 5016121.193 -19242408.992 -15973097.247 10 0 60209 67500.00000 0 5971791.775 -20796695.664 -13509965.008 10 0 60209 68400.00000 0 6646368.115 -22143124.220 -10784416.861 10 0 60209 69300.00000 0 7060654.353 -23225807.352 -7849436.527 10 0 60209 70200.00000 0 7246257.350 -23996306.824 -4762052.604 10 0 60209 71100.00000 0 7243991.437 -24415677.682 -1582228.472 10 0 60209 72000.00000 0 7101900.464 -24456132.781 1628303.377 10 0 60209 72900.00000 0 6872981.842 -24102257.996 4807239.680 10 0 60209 73800.00000 0 6612709.557 -23351727.422 7892913.982 10 0 60209 74700.00000 0 6376461.436 -22215488.824 10825489.880 10 0 60209 75600.00000 0 6216959.665 -20717411.788 13548116.917 10 0 60209 76500.00000 0 6181832.735 -18893413.400 16008026.986 10 0 60209 77400.00000 0 6311401.697 -16790097.972 18157550.455 10 0 60209 78300.00000 0 6636783.917 -14462967.347 19955033.011 10 0 60209 79200.00000 0 7178394.191 -11974275.892 21365636.239 10 0 60209 80100.00000 0 7944906.365 -9390618.807 22362007.241 10 0 60209 81000.00000 0 8932719.448 -6780353.079 22924805.075 10 0 60209 81900.00000 0 10125951.277 -4210957.130 23043074.422 10 0 60209 82800.00000 0 11496960.967 -1746437.626 22714459.550 10 0 60209 83700.00000 0 13007379.481 555110.135 21945254.470 10 0 60209 84600.00000 0 14609606.623 2643688.116 20750287.993 10 0 60209 85500.00000 0 16248713.290 4479237.892 19152645.263 10 0 60210 0.00000 0 17864670.650 6033063.582 17183230.485 10 0 60210 900.00000 0 19394815.060 7288777.535 14880177.126 10 0 60210 1800.00000 0 20776444.180 8242727.804 12288118.663 10 0 60210 2700.00000 0 21949438.875 8903892.667 9457329.493 10 0 60210 3600.00000 0 22858798.785 9293244.811 6442754.407 10 0 60210 4500.00000 0 23456985.526 9442613.073 3302943.966 10 0 60210 5400.00000 0 23705974.169 9393089.906 98916.480 10 0 60210 6300.00000 0 23578925.616 9193052.223 -3107031.189 10 0 60210 7200.00000 0 23061408.291 8895879.886 -6252540.306 10 0 60210 8100.00000 0 22152116.462 8557469.158 -9276410.055 10 0 60210 9000.00000 0 20863053.770 8233647.278 -12119795.834 10 0 60210 9900.00000 0 19219173.228 7977598.727 -14727361.813 10 0 60210 10800.00000 0 17257488.035 7837413.177 -17048364.457 10 0 60210 11700.00000 0 15025689.966 7853860.012 -19037645.342 10 0 60210 12600.00000 0 12580332.971 8058484.495 -20656513.397 10 0 60210 13500.00000 0 9984657.882 8472106.887 -21873499.279 10 0 60210 14400.00000 0 7306149.098 9103788.595 -22664967.223 10 0 60210 15300.00000 0 4613925.294 9950309.490 -23015572.677 10 0 60210 16200.00000 0 1976072.808 10996178.804 -22918557.205 10 0 60210 17100.00000 0 -542967.402 12214179.482 -22375875.333 10 0 60210 18000.00000 0 -2884850.875 13566423.225 -21398151.312 10 0 60210 18900.00000 0 -4999517.514 15005872.045 -20004467.004 10 0 60210 19800.00000 0 -6847026.060 16478262.458 -18221985.335 10 0 60210 20700.00000 0 -8398959.964 17924351.498 -16085416.877 10 0 60210 21600.00000 0 -9639347.496 19282390.230 -13636340.128 10 0 60210 22500.00000 0 -10565059.345 20490720.812 -10922388.826 10 0 60210 23400.00000 0 -11185668.855 21490387.965 -7996322.330 10 0 60210 24300.00000 0 -11522782.599 22227655.058 -4914997.294 10 0 60210 25200.00000 0 -11608871.219 22656319.062 -1738260.866 10 0 60210 26100.00000 0 -11485651.318 22739727.062 1472212.786 10 0 60210 27000.00000 0 -11202088.018 22452409.639 4654119.792 10 0 60210 27900.00000 0 -10812103.526 21781262.557 7745734.282 10 0 60210 28800.00000 0 -10372089.206 20726227.204 10687102.941 10 0 60210 29700.00000 0 -9938326.676 19300441.263 13421203.304 10 0 60210 30600.00000 0 -9564426.916 17529853.207 15895043.624 10 0 60210 31500.00000 0 -9298895.400 15452316.545 18060683.449 10 0 60210 32400.00000 0 -9182925.660 13116201.234 19876155.767 10 0 60210 33300.00000 0 -9248513.938 10578579.532 21306273.675 10 0 60210 34200.00000 0 -9516974.080 7903061.037 22323306.702 10 0 60210 35100.00000 0 -9997915.020 5157365.870 22907514.471 10 0 60210 36000.00000 0 -10688724.018 2410735.595 23047527.968 10 0 60210 36900.00000 0 -11574577.833 -268711.914 22740571.347 10 0 60210 37800.00000 0 -12628982.131 -2816575.256 21992520.038 10 0 60210 38700.00000 0 -13814817.613 -5174603.622 20817793.732 10 0 60210 39600.00000 0 -15085850.187 -7292872.281 19239085.690 10 0 60210 40500.00000 0 -16388643.170 -9131610.009 17286932.776 10 0 60210 41400.00000 0 -17664792.517 -10662603.172 14999133.465 10 0 60210 42300.00000 0 -18853392.209 -11870118.452 12420024.062 10 0 60210 43200.00000 0 -19893626.918 -12751306.103 9599626.132 10 0 60210 44100.00000 0 -20727383.189 -13316067.124 6592680.861 10 0 60210 45000.00000 0 -21301769.056 -13586390.200 3457588.564 10 0 60210 45900.00000 0 -21571435.392 -13595186.589 255273.764 10 0 60210 46800.00000 0 -21500600.200 -13384672.401 -2952001.998 10 0 60210 47700.00000 0 -21064689.295 -13004367.109 -6101855.998 10 0 60210 48600.00000 0 -20251522.845 -12508793.493 -9133004.467 10 0 60210 49500.00000 0 -19061996.393 -11954977.138 -11986462.425 10 0 60210 50400.00000 0 -17510226.360 -11399852.191 -14606698.911 10 0 60210 51300.00000 0 -15623152.816 -10897684.095 -16942724.323 10 0 60210 52200.00000 0 -13439615.249 -10497619.291 -18949088.027 10 0 60210 53100.00000 0 -11008939.495 -10241466.316 -20586766.338 10 0 60210 54000.00000 0 -8389094.495 -10161802.745 -21823923.433 10 0 60210 54900.00000 0 -5644495.685 -10280488.458 -22636530.405 10 0 60210 55800.00000 0 -2843546.509 -10607648.238 -23008830.627 10 0 60210 56700.00000 0 -56020.376 -11141166.787 -22933642.770 10 0 60210 57600.00000 0 2649608.176 -11866717.435 -22412495.954 10 0 60210 58500.00000 0 5208772.384 -12758323.254 -21455594.871 10 0 60210 59400.00000 0 7563254.247 -13779426.810 -20081615.896 10 0 60210 60300.00000 0 9663356.829 -14884423.341 -18317338.470 10 0 60210 61200.00000 0 11469718.420 -16020592.666 -16197119.180 10 0 60210 62100.00000 0 12954694.192 -17130348.305 -13762218.925 10 0 60210 63000.00000 0 14103249.209 -18153708.987 -11059996.419 10 0 60210 63900.00000 0 14913327.055 -19030888.305 -8142983.891 10 0 60210 64800.00000 0 15395680.400 -19704893.332 -5067863.162 10 0 60210 65700.00000 0 15573172.372 -20124022.645 -1894362.193 10 0 60210 66600.00000 0 15479579.725 -20244158.456 1315906.129 10 0 60210 67500.00000 0 15157949.712 -20030756.269 4500640.204 10 0 60210 68400.00000 0 14658581.082 -19460448.270 7598057.484 10 0 60210 69300.00000 0 14036715.286 -18522192.940 10548090.254 10 0 60210 70200.00000 0 13350035.883 -17217922.468 13293546.276 10 0 60210 71100.00000 0 12656081.812 -15562660.572 15781212.105 10 0 60210 72000.00000 0 12009683.630 -13584105.431 17962878.070 10 0 60210 72900.00000 0 11460530.397 -11321694.619 19796265.734 10 0 60210 73800.00000 0 11050969.251 -8825190.309 21245840.641 10 0 60210 74700.00000 0 10814129.770 -6152842.767 22283495.366 10 0 60210 75600.00000 0 10772451.541 -3369207.368 22889090.418 10 0 60210 76500.00000 0 10936676.543 -542704.516 23050843.134 10 0 60210 77400.00000 0 11305348.667 2256977.607 22765557.354 10 0 60210 78300.00000 0 11864841.636 4961531.174 22038689.515 10 0 60210 79200.00000 0 12589914.769 7506619.212 20884249.597 10 0 60210 80100.00000 0 13444774.083 9834302.183 19324538.230 10 0 60210 81000.00000 0 14384595.149 11895200.887 17389724.232 10 0 60210 81900.00000 0 15357444.784 13650306.553 15117269.698 10 0 60210 82800.00000 0 16306521.681 15072363.265 12551212.725 10 0 60210 83700.00000 0 17172622.418 16146765.410 9741320.686 10 0 60210 84600.00000 0 17896729.359 16871932.863 6742129.612 10 0 60210 85500.00000 0 18422611.345 17259148.308 3611887.822 10 0 60211 0.00000 0 18699327.003 17331863.721 411424.399 10 0 60211 900.00000 0 18683524.328 17124505.430 -2797037.111 10 0 60211 1800.00000 0 18341437.974 16680828.425 -5951091.929 10 0 60211 2700.00000 0 17650499.075 16051890.045 -8989375.602 10 0 60211 3600.00000 0 16600487.768 15293729.124 -11852765.039 10 0 60211 4500.00000 0 15194178.509 14464849.570 -14485536.379 10 0 60211 5400.00000 0 13447449.623 13623615.574 -16836456.098 10 0 60211 6300.00000 0 11388851.224 12825669.345 -18859783.412 10 0 60211 7200.00000 0 9058648.680 12121481.253 -20516164.005 10 0 60211 8100.00000 0 6507380.940 11554136.358 -21773397.460 10 0 60211 9000.00000 0 3793993.448 11157451.141 -22607063.516 10 0 60211 9900.00000 0 983623.210 10954500.011 -23000995.132 10 0 60211 10800.00000 0 -1854871.894 10956613.618 -22947589.541 10 0 60211 11700.00000 0 -4651537.006 11162890.931 -22447951.646 10 0 60211 12600.00000 0 -7337988.472 11560245.240 -21511867.406 10 0 60211 13500.00000 0 -9850015.793 12123981.667 -20157608.114 10 0 60211 14400.00000 0 -12130009.711 12818881.349 -18411569.683 10 0 60211 15300.00000 0 -14129116.164 13600746.121 -16307754.199 10 0 60211 16200.00000 0 -15809027.388 14418338.137 -13887104.016 10 0 60211 17100.00000 0 -17143336.711 15215632.264 -11196701.487 10 0 60211 18000.00000 0 -18118401.820 15934285.889 -8288850.051 10 0 60211 18900.00000 0 -18733681.909 16516221.698 -5220054.743 10 0 60211 19800.00000 0 -19001536.218 16906214.182 -2049922.155 10 0 60211 20700.00000 0 -18946493.943 17054370.586 1159998.514 10 0 60211 21600.00000 0 -18604027.737 16918401.455 4347410.525 10 0 60211 22500.00000 0 -18018883.668 16465584.940 7450477.420 10 0 60211 23400.00000 0 -17243039.015 15674341.947 10409019.991 10 0 60211 24300.00000 0 -16333374.650 14535355.626 13165679.253 10 0 60211 25200.00000 0 -15349160.423 13052187.869 15667023.125 10 0 60211 26100.00000 0 -14349459.517 11241366.516 17864575.759 10 0 60211 27000.00000 0 -13390560.748 9131938.981 19715750.237 10 0 60211 27900.00000 0 -12523546.317 6764510.112 21184667.302 10 0 60211 28800.00000 0 -11792096.623 4189803.400 22242845.063 10 0 60211 29700.00000 0 -11230623.631 1466804.186 22869747.073 10 0 60211 30600.00000 0 -10862810.548 -1339439.345 23053178.782 10 0 60211 31500.00000 0 -10700618.649 -4160267.531 22789525.033 10 0 60211 32400.00000 0 -10743802.702 -6926012.758 22083824.114 10 0 60211 33300.00000 0 -10979955.413 -9568648.598 20949676.624 10 0 60211 34200.00000 0 -11385079.360 -12024375.894 19408990.376 10 0 60211 35100.00000 0 -11924662.991 -14236039.514 17491565.445 10 0 60211 36000.00000 0 -12555216.142 -16155276.167 15234526.342 10 0 60211 36900.00000 0 -13226201.220 -17744304.382 12681611.310 10 0 60211 37800.00000 0 -13882279.307 -18977282.358 9882331.469 10 0 60211 38700.00000 0 -14465776.916 -19841177.083 6891015.292 10 0 60211 39600.00000 0 -14919269.360 -20336108.318 3765756.414 10 0 60211 40500.00000 0 -15188171.309 -20475153.029 567284.997 10 0 60211 41400.00000 0 -15223224.439 -20283618.509 -2642215.358 10 0 60211 42300.00000 0 -14982775.925 -19797814.924 -5800321.620 10 0 60211 43200.00000 0 -14434750.227 -19063379.373 -8845591.998 10 0 60211 44100.00000 0 -13558229.329 -18133222.594 -11718768.685 10 0 60211 45000.00000 0 -12344573.204 -17065185.648 -14363938.294 10 0 60211 45900.00000 0 -10798031.697 -15919506.219 -16729626.642 10 0 60211 46800.00000 0 -8935820.648 -14756202.179 -18769805.846 10 0 60211 47700.00000 0 -6787657.838 -13632483.549 -20444793.661 10 0 60211 48600.00000 0 -4394777.154 -12600302.453 -21722027.352 10 0 60211 49500.00000 0 -1808461.443 -11704144.678 -22576697.056 10 0 60211 50400.00000 0 911845.230 -10979155.899 -22992226.498 10 0 60211 51300.00000 0 3700767.669 -10449681.265 -22960592.083 10 0 60211 52200.00000 0 6489479.407 -10128279.354 -22482474.564 10 0 60211 53100.00000 0 9208329.437 -10015251.361 -21567240.740 10 0 60211 54000.00000 0 11789506.898 -10098704.538 -20232755.954 10 0 60211 54900.00000 0 14169633.327 -10355146.367 -18505031.310 10 0 60211 55800.00000 0 16292175.127 -10750583.566 -16417712.735 10 0 60211 56700.00000 0 18109576.553 -11242078.792 -14011422.019 10 0 60211 57600.00000 0 19585025.204 -11779698.634 -11332962.762 10 0 60211 58500.00000 0 20693777.407 -12308770.047 -8434406.872 10 0 60211 59400.00000 0 21423989.339 -12772349.423 -5372079.567 10 0 60211 60300.00000 0 21777020.459 -13113799.587 -2205462.785 10 0 60211 61200.00000 0 21767197.926 -13279365.504 1003961.367 10 0 60211 62100.00000 0 21421053.259 -13220639.659 4193904.450 10 0 60211 63000.00000 0 20776064.604 -12896812.794 7302479.424 10 0 60211 63900.00000 0 19878958.519 -12276614.836 10269398.707 10 0 60211 64800.00000 0 18783643.541 -11339864.005 13037139.368 10 0 60211 65700.00000 0 17548862.918 -10078558.540 15552053.116 10 0 60211 66600.00000 0 16235665.359 -8497464.771 17765399.938 10 0 60211 67500.00000 0 14904799.917 -6614176.204 19634286.009 10 0 60211 68400.00000 0 13614143.928 -4458640.297 21122488.427 10 0 60211 69300.00000 0 12416271.273 -2072171.653 22201151.580 10 0 60211 70200.00000 0 11356262.110 494008.539 22849342.410 10 0 60211 71100.00000 0 10469845.025 3180647.455 23054454.455 10 0 60211 72000.00000 0 9781948.678 5922673.627 22812453.200 10 0 60211 72900.00000 0 9305723.030 8651657.620 22127958.092 10 0 60211 73800.00000 0 9042070.750 11298419.845 21014159.383 10 0 60211 74700.00000 0 8979708.371 13795678.591 19492570.865 10 0 60211 75600.00000 0 9095754.723 16080629.466 17592622.445 10 0 60211 76500.00000 0 9356822.227 18097349.924 15351099.469 10 0 60211 77400.00000 0 9720565.585 19798929.321 12811438.578 10 0 60211 78300.00000 0 10137623.046 21149235.988 10022892.767 10 0 60211 79200.00000 0 10553868.667 22124247.577 7039580.948 10 0 60211 80100.00000 0 10912880.585 22712888.828 3919439.963 10 0 60211 81000.00000 0 11158520.735 22917341.451 723099.135 10 0 60211 81900.00000 0 11237516.378 22752812.916 -2487300.699 10 0 60211 82800.00000 0 11101933.323 22246773.726 -5649320.221 10 0 60211 83700.00000 0 10711434.994 21437695.388 -8701442.494 10 0 60211 84600.00000 0 10035230.407 20373342.444 -11584277.078 10 0 60211 85500.00000 0 9053627.160 19108691.003 -14241723.024 99